This is the latest recevied weather packets stored in our database for station/object SQ5AAG-2. If no packets are shown the sender has not sent any weather packets the latest 10 day(s).
| Time | Temp. | Humidity | Pressure | Rain* | Wind** | Luminosity | Snow |
|---|---|---|---|---|---|---|---|
| 1777446677 | 5° C | 54% | 1013.1 hPa | 0 mm | - | - | - |
| 1777446378 | 5° C | 56% | 1012.9 hPa | 0 mm | - | - | - |
| 1777446076 | 5° C | 57% | 1013 hPa | 0 mm | - | - | - |
| 1777445776 | 5° C | 58% | 1012.9 hPa | 0 mm | - | - | - |
| 1777445476 | 4.44° C | 58% | 1012.9 hPa | 0 mm | - | - | - |
| 1777445177 | 4.44° C | 58% | 1013 hPa | 0 mm | - | - | - |
| 1777444875 | 5° C | 57% | 1012.9 hPa | 0 mm | - | - | - |
| 1777444575 | 4.44° C | 59% | 1012.8 hPa | 0 mm | - | - | - |
| 1777444274 | 4.44° C | 59% | 1012.9 hPa | 0 mm | - | - | - |
| 1777443975 | 3.89° C | 59% | 1012.8 hPa | 0 mm | - | - | - |
| 1777443674 | 3.89° C | 58% | 1012.7 hPa | 0 mm | - | - | - |
| 1777443373 | 4.44° C | 57% | 1012.8 hPa | 0 mm | - | - | - |
| 1777443073 | 4.44° C | 56% | 1012.9 hPa | 0 mm | - | - | - |
| 1777442773 | 5.56° C | 53% | 1012.9 hPa | 0 mm | - | - | - |
| 1777442473 | 6.11° C | 53% | 1012.7 hPa | 0 mm | - | - | - |
| 1777442172 | 6.11° C | 54% | 1012.7 hPa | 0 mm | - | - | - |
| 1777441872 | 6.11° C | 53% | 1012.7 hPa | 0 mm | - | - | - |
| 1777441572 | 6.11° C | 53% | 1012.7 hPa | 0 mm | - | - | - |
| 1777441271 | 6.11° C | 54% | 1012.8 hPa | 0 mm | - | - | - |
| 1777440971 | 6.11° C | 54% | 1012.7 hPa | 0 mm | - | - | - |
| 1777440671 | 6.11° C | 54% | 1012.7 hPa | 0 mm | - | - | - |
| 1777440372 | 6.11° C | 54% | 1012.7 hPa | 0 mm | - | - | - |
| 1777440070 | 5.56° C | 54% | 1012.7 hPa | 0 mm | - | - | - |
| 1777439770 | 5.56° C | 55% | 1012.5 hPa | 0 mm | - | - | - |
| 1777439470 | 5.56° C | 55% | 1012.6 hPa | 0 mm | - | - | - |
* Rain latest hour (hover to see other rain measurements)
** Current wind speed in m/s (hover to see current wind gust speed)